Regional Weather Roundup
Issued by NWS Sioux Falls, SD

Home | Current Version | Previous Version | Text Only | Print | Product List | Glossary On
Versions: 1 2 3 4 5 6 7 8 9 10 11 12 13 14 15 16 17 18 19 20 21 22 23 24 25 26 27 28 29 30 31 32 33 34 35 36 37 38 39 40 41 42 43 44 45 46 47 48 49 50
000
ASUS43 KFSD 021910
RWRFSD

WEATHER ROUNDUP FOR SE SOUTH DAKOTA/SW MINNESOTA/NW IOWA
NATIONAL WEATHER SERVICE SIOUX FALLS SD
200 PM CDT TUE SEP 02 2014

NOTE: "FAIR" INDICATES FEW OR NO CLOUDS BELOW 12,000 FEET WITH NO
SIGNIFICANT WEATHER AND OR OBSTRUCTIONS TO VISIBILITY.


SDZ038>040-050-052>070-022000-
SOUTHEAST SOUTH DAKOTA

CITY           SKY/WX    TMP DP  RH WIND       PRES   REMARKS
CHAMBERLAIN    SUNNY     77  50  38 SW7       29.91F
HURON          SUNNY     78  50  37 SW14G20   29.89F
MADISON        FAIR      73  55  53 W8G16     29.95S
MITCHELL       SUNNY     76  55  48 SW7       29.93F
SIOUX FALLS    MOSUNNY   74  55  51 W6        29.94F
WINNER         FAIR      80  52  37 S8        29.92F
YANKTON        SUNNY     73  54  49 CALM      29.95F
$$

MNZ071-072-080-081-089-090-097-098-022000-
SOUTHWEST MINNESOTA

CITY           SKY/WX    TMP DP  RH WIND       PRES   REMARKS
FAIRMONT       SUNNY     75  55  50 W8        29.94S
JACKSON        SUNNY     73  54  49 W12       29.96R
LUVERNE        SUNNY     75  54  46 W10       29.95F
MARSHALL       MOSUNNY   77  52  41 W8G23     29.90F
MONTEVIDEO     SUNNY     79  57  47 W8        29.90S
PIPESTONE      MOSUNNY   73  55  53 SW12      29.95F
REDWOOD FALLS  SUNNY     78  53  41 SW13G18   29.90F
TRACY          PTSUNNY   76  56  49 SW7       29.92F
WINDOM         MOSUNNY   75  59  57 SW9       29.94S
WORTHINGTON    MOSUNNY   73  57  56 SW10      29.96F
$$

IAZ001>003-012>014-020>022-031-032-NEZ013-014-SDZ071-022000-
NORTHWEST IOWA

CITY           SKY/WX    TMP DP  RH WIND       PRES   REMARKS
CHEROKEE       SUNNY     74  61  64 SW10      29.97S
DENISON        SUNNY     73  61  64 SW8       29.97S
ESTHERVILLE    MOSUNNY   73  57  57 W10       29.95S
LE MARS        SUNNY     75  59  57 VRB7G14   29.97S
ORANGE CITY    SUNNY     75  57  53 SW9       29.97S
SHELDON        SUNNY     73  61  64 W10       29.95F
SIOUX CITY     SUNNY     76  58  53 VRB6      29.97S
SPENCER        SUNNY     75  57  53 SW12      29.96S
STORM LAKE     SUNNY     73  64  73 SW10      29.98S
$$

ABBREVIATIONS USED IN REMARKS
   TC - TEMPERATURE IN CELSIUS
  WCI - WIND CHILL INDEX
   HX - HEAT INDEX
  VSB - VISIBILITY



USA.gov is the U.S. government's official web portal to all federal, state and local government web resources and services.